Location: *
(1.3500°S, 147.5000°W)
Time: 00:30:41
(UTC+00:00)

USA 215 - Pass Details

Date: 07 April 2020
Orbit: 1098 x 1110 km, 123.0° (Epoch: 05 June)

Event Time Altitude Azimuth Distance (km) Brightness Sun altitude
Rises 04:35:55 0° 147° (SSE) 3,924 5.8 -11.0°
Reaches altitude 10° 04:38:24 10° 148° (SSE) 2,963 5.2 -11.7°
Maximum altitude 04:44:56 77° 233° (SW) 1,131 3.4 -13.3°
Drops below altitude 10° 04:51:26 10° 319° (NW) 2,945 6.2 -14.9°
Sets 04:53:55 0° 320° (NW) 3,899 6.9 -15.5°
